• In Hungary
  • List of Countries
  • For 7 days
  • Water Temperature
  • Satellite Maps
  • Weather Map
  • News
  • Weather Widgets
  • user-avatar
    Login

    Hourly Weather Uige

    Today, 17 November, Friday

    Time Temperature Precipitation Wind Pressure Humidity
    00:00 +19°C° 0.3 mm 0 mps 690 mmHg 95%
    01:00 +19°C° 0 mm 0 mps 690 mmHg 98%
    02:00 +19°C° 0 mm 0 mps 690 mmHg 98%
    03:00 +18°C° 0 mm 0 mps 689 mmHg 98%
    04:00 +18°C° 0 mm 0 mps 689 mmHg 98%
    05:00 +19°C° 0 mm 0 mps 690 mmHg 97%
    06:00 +19°C° 0 mm 0 mps 690 mmHg 96%
    07:00 +21°C° 0 mm 0 mps 691 mmHg 95%
    08:00 +22°C° 0 mm 0 mps 691 mmHg 88%
    09:00 +23°C° 0 mm 0 mps 691 mmHg 81%
    10:00 +25°C° 0 mm 0 mps 691 mmHg 74%
    11:00 +28°C° 0 mm 1 mps 691 mmHg 67%
    12:00 +30°C° 0 mm 1 mps 690 mmHg 59%
    13:00 +31°C° 0 mm 1 mps 690 mmHg 54%
    14:00 +30°C° 0.2 mm 1 mps 690 mmHg 57%
    15:00 +30°C° 0.2 mm 2 mps 689 mmHg 59%
    16:00 +29°C° 0.2 mm 2 mps 689 mmHg 62%
    17:00 +27°C° 0.2 mm 1 mps 689 mmHg 69%
    18:00 +25°C° 0.2 mm 1 mps 689 mmHg 75%
    19:00 +23°C° 0.2 mm 1 mps 689 mmHg 82%
    20:00 +23°C° 0 mm 1 mps 690 mmHg 85%
    21:00 +22°C° 0 mm 1 mps 690 mmHg 87%
    22:00 +21°C° 0 mm 1 mps 691 mmHg 90%
    23:00 +21°C° 0 mm 1 mps 690 mmHg 91%

    Tomorrow, 18 November, Saturday

    Time Temperature Precipitation Wind Pressure Humidity
    00:00 +21°C° 0 mm 1 mps 690 mmHg 92%
    01:00 +21°C° 0 mm 1 mps 690 mmHg 94%
    02:00 +20°C° 0.1 mm 1 mps 690 mmHg 95%
    03:00 +20°C° 0.1 mm 1 mps 689 mmHg 96%
    04:00 +20°C° 0.1 mm 1 mps 689 mmHg 97%
    05:00 +20°C° 0 mm 1 mps 690 mmHg 95%
    06:00 +21°C° 0 mm 1 mps 690 mmHg 93%
    07:00 +22°C° 0 mm 1 mps 691 mmHg 91%
    08:00 +23°C° 0.1 mm 1 mps 691 mmHg 84%
    09:00 +25°C° 0.1 mm 1 mps 691 mmHg 77%
    10:00 +27°C° 0.1 mm 1 mps 691 mmHg 70%
    11:00 +28°C° 0.2 mm 1 mps 691 mmHg 67%
    12:00 +29°C° 0.2 mm 1 mps 690 mmHg 63%
    13:00 +30°C° 0.2 mm 1 mps 690 mmHg 60%
    14:00 +29°C° 0.8 mm 1 mps 689 mmHg 65%
    15:00 +28°C° 0.8 mm 1 mps 688 mmHg 70%
    16:00 +27°C° 0.8 mm 1 mps 688 mmHg 75%
    17:00 +26°C° 0.8 mm 1 mps 688 mmHg 79%
    18:00 +25°C° 0.8 mm 1 mps 689 mmHg 83%
    19:00 +23°C° 0.8 mm 1 mps 689 mmHg 86%
    20:00 +23°C° 0.6 mm 1 mps 690 mmHg 88%
    21:00 +22°C° 0.6 mm 1 mps 690 mmHg 91%
    22:00 +22°C° 0.6 mm 1 mps 691 mmHg 93%
    23:00 +22°C° 0.4 mm 1 mps 690 mmHg 94%

    Day after tomorrow, 19 November, Sunday

    Time Temperature Precipitation Wind Pressure Humidity
    00:00 +21°C° 0.4 mm 1 mps 690 mmHg 95%
    01:00 +19°C° 0.4 mm 0 mps 690 mmHg 96%
    02:00 +19°C° 0.3 mm 0 mps 690 mmHg 96%
    03:00 +19°C° 0.3 mm 0 mps 690 mmHg 97%
    04:00 +19°C° 0.3 mm 0 mps 689 mmHg 97%
    05:00 +19°C° 0.4 mm 0 mps 690 mmHg 96%
    06:00 +19°C° 0.4 mm 0 mps 690 mmHg 96%
    07:00 +19°C° 0.4 mm 0 mps 691 mmHg 95%
    08:00 +21°C° 0.3 mm 0 mps 691 mmHg 89%
    09:00 +23°C° 0.3 mm 0 mps 692 mmHg 84%
    10:00 +24°C° 0.3 mm 0 mps 692 mmHg 78%
    11:00 +25°C° 0.6 mm 0 mps 692 mmHg 78%
    12:00 +27°C° 0.6 mm 1 mps 691 mmHg 78%
    13:00 +27°C° 0.6 mm 1 mps 690 mmHg 78%
    14:00 +27°C° 1.3 mm 1 mps 690 mmHg 81%
    15:00 +26°C° 1.3 mm 1 mps 689 mmHg 84%
    16:00 +25°C° 1.3 mm 1 mps 689 mmHg 88%
    17:00 +24°C° 0.5 mm 1 mps 689 mmHg 90%
    18:00 +21°C° 0.5 mm 0 mps 690 mmHg 92%
    19:00 +20°C° 0.5 mm 0 mps 690 mmHg 94%
    20:00 +20°C° 0 mm 0 mps 691 mmHg 94%
    21:00 +20°C° 0 mm 0 mps 691 mmHg 94%
    22:00 +19°C° 0 mm 0 mps 692 mmHg 95%
    23:00 +19°C° 0 mm 0 mps 691 mmHg 96%

    20 November, Monday

    Time Temperature Precipitation Wind Pressure Humidity
    00:00 +19°C° 0 mm 0 mps 691 mmHg 97%
    01:00 +19°C° 0 mm 0 mps 690 mmHg 97%
    02:00 +19°C° 0.1 mm 0 mps 690 mmHg 98%
    03:00 +19°C° 0.1 mm 0 mps 690 mmHg 98%
    04:00 +19°C° 0.1 mm 0 mps 690 mmHg 98%
    05:00 +19°C° 0.3 mm 0 mps 691 mmHg 98%
    06:00 +19°C° 0.3 mm 0 mps 691 mmHg 98%
    07:00 +19°C° 0.3 mm 0 mps 692 mmHg 97%
    08:00 +21°C° 0.2 mm 0 mps 692 mmHg 93%
    09:00 +22°C° 0.2 mm 0 mps 692 mmHg 89%
    10:00 +23°C° 0.2 mm 0 mps 693 mmHg 86%
    11:00 +24°C° 0.2 mm 0 mps 692 mmHg 82%
    12:00 +26°C° 0.2 mm 1 mps 691 mmHg 78%
    13:00 +27°C° 0.2 mm 1 mps 691 mmHg 75%
    14:00 +27°C° 0.6 mm 1 mps 690 mmHg 77%
    15:00 +27°C° 0.6 mm 1 mps 690 mmHg 80%
    16:00 +26°C° 0.6 mm 1 mps 690 mmHg 82%
    17:00 +25°C° 0.3 mm 1 mps 690 mmHg 86%
    18:00 +24°C° 0.3 mm 1 mps 690 mmHg 89%
    19:00 +21°C° 0.3 mm 0 mps 690 mmHg 93%
    20:00 +22°C° 0 mm 1 mps 691 mmHg 94%
    21:00 +22°C° 0 mm 1 mps 691 mmHg 95%
    22:00 +22°C° 0 mm 1 mps 691 mmHg 96%
    23:00 +22°C° 0 mm 1 mps 691 mmHg 96%

    21 November, Tuesday

    Time Temperature Precipitation Wind Pressure Humidity
    00:00 +21°C° 0 mm 1 mps 691 mmHg 97%
    01:00 +21°C° 0 mm 1 mps 690 mmHg 97%
    02:00 +21°C° 0 mm 1 mps 690 mmHg 97%
    03:00 +21°C° 0 mm 1 mps 690 mmHg 97%
    04:00 +21°C° 0 mm 1 mps 690 mmHg 98%
    05:00 +21°C° 0 mm 1 mps 690 mmHg 96%
    06:00 +22°C° 0 mm 1 mps 691 mmHg 95%
    07:00 +22°C° 0 mm 1 mps 691 mmHg 93%
    08:00 +24°C° 0.2 mm 1 mps 691 mmHg 87%
    09:00 +26°C° 0.2 mm 1 mps 692 mmHg 80%
    10:00 +27°C° 0.2 mm 1 mps 692 mmHg 73%
    11:00 +28°C° 1.3 mm 1 mps 691 mmHg 75%
    12:00 +28°C° 1.3 mm 1 mps 690 mmHg 76%
    13:00 +28°C° 1.3 mm 1 mps 690 mmHg 77%
    14:00 +28°C° 1.3 mm 1 mps 689 mmHg 79%
    15:00 +27°C° 1.3 mm 1 mps 689 mmHg 82%
    16:00 +27°C° 1.3 mm 1 mps 689 mmHg 85%
    17:00 +25°C° 0.5 mm 1 mps 689 mmHg 87%
    18:00 +24°C° 0.5 mm 1 mps 689 mmHg 89%
    19:00 +20°C° 0.5 mm 0 mps 690 mmHg 92%
    20:00 +20°C° 0.3 mm 0 mps 690 mmHg 93%
    21:00 +20°C° 0.3 mm 0 mps 691 mmHg 93%
    22:00 +20°C° 0.3 mm 0 mps 691 mmHg 94%
    23:00 +21°C° 0.2 mm 1 mps 691 mmHg 95%

    22 November, Wednesday

    Time Temperature Precipitation Wind Pressure Humidity
    00:00 +21°C° 0.2 mm 1 mps 690 mmHg 96%
    01:00 +21°C° 0.2 mm 1 mps 690 mmHg 97%
    02:00 +21°C° 0 mm 1 mps 690 mmHg 97%
    03:00 +21°C° 0 mm 1 mps 689 mmHg 97%
    04:00 +19°C° 0 mm 0 mps 689 mmHg 98%
    05:00 +19°C° 0 mm 0 mps 690 mmHg 97%
    06:00 +20°C° 0 mm 0 mps 690 mmHg 96%
    07:00 +20°C° 0 mm 0 mps 691 mmHg 95%
    08:00 +22°C° 0.6 mm 0 mps 691 mmHg 89%
    09:00 +26°C° 0.6 mm 1 mps 691 mmHg 83%
    10:00 +27°C° 0.6 mm 1 mps 692 mmHg 77%
    11:00 +28°C° 0.6 mm 1 mps 691 mmHg 73%
    12:00 +29°C° 0.6 mm 1 mps 690 mmHg 68%
    13:00 +29°C° 0.6 mm 1 mps 689 mmHg 63%
    14:00 +29°C° 0.3 mm 1 mps 689 mmHg 65%
    15:00 +29°C° 0.3 mm 1 mps 689 mmHg 67%
    16:00 +28°C° 0.3 mm 1 mps 688 mmHg 69%
    17:00 +26°C° 0.3 mm 1 mps 689 mmHg 75%
    18:00 +23°C° 0.3 mm 0 mps 689 mmHg 81%
    19:00 +21°C° 0.3 mm 0 mps 690 mmHg 87%
    20:00 +21°C° 0.3 mm 0 mps 690 mmHg 90%
    21:00 +20°C° 0.3 mm 0 mps 690 mmHg 92%
    22:00 +20°C° 0.3 mm 0 mps 690 mmHg 95%
    23:00 +20°C° 0.4 mm 0 mps 690 mmHg 96%
    Show more